RH
5 6 6 6 8 11 8 7 11 11 9 8 7 6 6 6 6 6 6 8 8 10 11 10 11 8 7 9 14 18 17 23 30 33 40 50 47 41 40 39 40 36 35 37 32 33 35 36 38 38 40 39 37 36 39 40 40 41 41 41 41 41 40 39 37 32 33 35 36 37 34 26 20 17 19 20 22 25 28 30 26 23 24 22 21 21 21 23 23 23 23 24 26 27 24 22 20
9 8 6 7 8 10 11 8 9 10 9 8 6 5 6 7 7 5 6 8 10 11 9 8 7 6 6 6 11 15 21 26 29 33 37 40 43 43 40 38 38 35 35 36 32 31 34 36 38 37 38 38 37 37 39 40 41 42 43 43 42 42 42 41 38 34 33 37 39 39 37 31 24 18 19 21 23 25 30 35 28 24 26 24 23 22 23 24 25 25 25 25 27 28 25 22 21
13 11 7 8 9 9 13 10 6 8 8 8 8 7 6 7 6 6 7 7 8 7 6 7 6 8 9 10 16 21 32 39 36 34 33 33 38 42 40 39 39 37 35 36 32 32 35 37 38 36 36 38 37 37 39 40 40 42 43 44 44 45 44 42 39 35 35 38 41 42 39 34 28 21 19 20 22 25 31 36 29 27 30 26 25 24 25 27 27 27 26 27 28 29 26 23 22
11 11 8 8 9 9 10 9 5 6 7 6 8 8 6 6 6 7 7 6 6 5 6 6 6 9 13 22 31 31 40 45 41 36 33 31 35 42 43 41 39 37 36 36 35 36 38 38 38 35 35 38 38 38 38 39 39 42 44 45 46 46 45 43 40 38 36 39 43 43 40 36 31 24 21 21 23 25 30 34 30 32 33 28 29 28 29 29 29 29 28 28 30 29 25 23 22
10 10 9 8 12 11 9 9 7 6 6 5 7 8 6 7 7 8 7 6 7 5 7 6 8 14 16 26 34 38 46 45 42 38 36 38 40 43 44 40 37 36 36 35 35 40 40 40 39 34 36 39 38 37 37 38 39 42 45 46 47 46 45 43 41 40 38 42 44 43 41 37 32 28 24 22 24 27 30 33 31 34 34 33 35 34 33 32 30 30 30 30 32 30 25 23 22
10 9 8 8 13 13 9 9 9 8 5 5 6 7 7 8 8 8 7 7 6 6 7 6 11 19 24 30 32 38 44 43 42 38 38 44 44 43 43 41 38 37 37 36 38 44 43 42 39 35 37 38 38 37 36 37 39 42 45 47 47 46 44 43 43 41 41 45 45 44 41 37 37 33 26 23 27 29 31 33 33 36 37 38 40 40 38 34 32 32 32 32 34 32 27 25 23
10 9 8 8 10 10 9 9 9 8 6 6 6 6 8 9 8 7 6 8 9 8 7 9 12 18 31 39 37 39 40 40 40 36 39 43 44 44 44 43 42 41 43 43 45 48 47 43 37 35 37 38 38 37 36 37 38 41 44 47 47 46 45 45 45 44 44 45 45 45 41 38 41 34 27 28 29 30 32 35 37 38 39 41 45 46 42 37 35 33 33 35 36 34 29 27 25
9 11 12 8 10 8 6 8 8 7 7 7 7 7 8 8 7 7 8 10 11 12 10 12 14 14 29 38 40 44 41 41 40 37 41 41 41 43 43 43 43 44 46 46 46 48 44 38 34 34 37 38 38 38 38 38 38 39 42 45 45 45 46 47 47 46 45 45 46 46 41 41 41 31 27 31 29 29 32 35 40 42 42 45 48 47 43 39 37 34 34 36 37 35 31 29 28
8 13 15 9 12 13 8 8 8 7 7 8 8 7 7 7 7 7 8 11 12 14 11 11 10 11 28 37 40 46 43 41 40 39 41 40 40 41 41 41 41 43 44 44 44 44 38 33 32 35 38 38 39 39 39 39 39 39 40 42 43 46 48 49 48 45 45 47 49 49 45 43 41 33 30 29 27 29 32 36 43 46 45 47 47 44 42 41 39 36 35 37 37 36 33 31 30
8 11 13 8 10 15 12 8 7 7 7 7 7 7 8 8 8 8 9 13 17 17 15 12 8 10 27 40 43 48 46 43 41 41 42 42 41 40 41 39 38 40 41 42 44 41 34 31 34 37 39 40 40 41 41 40 40 40 41 41 42 46 49 50 47 44 46 50 53 50 47 43 40 37 34 29 27 30 32 37 45 49 48 47 44 41 42 43 40 37 37 38 38 38 35 33 32
11 10 11 10 10 12 10 8 7 7 8 8 7 8 8 8 8 9 10 14 22 21 16 12 11 11 22 39 49 52 50 46 45 45 44 42 40 39 40 40 38 38 38 42 46 40 33 32 36 40 41 42 41 41 43 41 40 40 40 41 43 46 48 48 45 46 49 53 54 49 49 45 38 36 33 29 27 28 33 38 47 51 50 47 42 39 44 45 42 40 41 41 40 40 38 36 35
13 10 8 10 11 10 8 8 8 7 8 7 8 9 8 9 7 9 11 16 26 26 17 12 16 16 20 39 50 53 51 48 48 45 45 42 39 38 37 39 38 38 39 43 48 39 32 35 39 43 43 43 44 44 45 42 40 39 41 43 44 47 49 48 46 50 53 54 52 48 51 46 35 32 29 27 27 29 34 41 51 54 51 48 41 40 46 47 44 42 44 45 43 43 41 39 38
13 13 10 9 10 9 8 7 8 7 7 7 11 11 7 9 8 10 11 15 26 26 19 15 18 21 28 42 48 53 56 54 51 47 46 43 41 41 39 43 42 43 45 47 49 40 34 39 43 46 46 46 46 45 45 41 40 39 41 44 45 49 51 50 50 53 55 54 50 46 48 40 30 27 25 26 26 30 36 45 55 55 52 48 40 41 47 48 46 44 46 49 48 47 46 44 42
11 13 13 11 10 9 8 7 7 7 6 9 12 11 8 10 9 10 10 14 27 28 26 22 20 28 38 47 51 55 58 57 54 49 47 46 47 48 47 52 53 52 54 52 49 43 40 46 48 47 49 51 49 48 45 40 38 38 40 44 47 50 51 51 53 55 54 52 47 42 41 34 27 24 23 26 26 31 37 46 56 56 53 46 39 42 47 48 47 45 47 52 55 54 52 49 47
11 11 11 11 12 9 8 6 7 6 8 10 13 12 9 11 11 10 10 14 27 27 25 27 26 34 44 52 58 56 56 56 54 50 51 55 60 60 59 62 65 65 63 59 54 47 46 52 51 48 50 51 49 50 49 42 38 39 39 43 47 49 51 51 53 54 52 50 46 42 39 34 29 25 22 25 28 31 36 45 55 58 55 46 40 42 46 47 46 45 46 53 58 58 57 54 51
10 11 9 9 11 9 8 7 7 7 9 12 14 15 11 12 12 12 11 10 21 25 26 36 37 41 48 52 58 58 56 57 55 52 52 55 60 61 61 61 66 72 72 70 66 57 53 55 53 49 49 47 48 50 50 46 41 41 42 43 48 49 50 52 53 53 52 50 48 44 40 35 32 29 26 28 33 37 40 47 53 58 56 47 41 43 46 45 45 45 46 50 54 57 60 58 53
10 10 10 9 10 9 10 7 7 7 10 14 15 14 11 12 13 12 11 9 19 26 31 45 47 47 49 48 55 58 55 56 53 49 47 47 48 51 54 53 55 66 76 79 77 72 66 61 57 54 52 51 56 56 53 52 46 45 47 48 51 53 52 53 54 54 54 51 49 46 40 38 37 34 33 34 38 44 49 51 53 57 56 50 44 44 47 45 44 46 46 49 52 55 60 58 55
10 9 10 11 10 9 10 8 8 9 11 15 15 14 11 11 14 12 10 14 21 24 29 44 53 54 52 50 56 57 52 51 48 46 47 45 43 44 46 47 49 55 68 79 82 81 78 74 70 65 63 65 68 65 61 57 51 51 54 55 55 55 53 54 56 56 56 52 50 47 42 44 44 41 41 41 44 51 55 56 57 59 56 51 47 46 47 45 43 45 47 50 53 57 60 58 58
10 9 10 11 11 10 11 10 10 10 11 14 14 12 11 11 13 11 11 17 19 19 30 47 57 55 52 51 53 54 52 50 47 47 48 45 43 42 43 45 49 50 56 68 75 77 79 79 80 77 74 76 74 70 68 62 58 58 57 57 57 56 55 56 59 58 57 55 52 50 46 48 49 50 52 50 53 58 59 59 60 61 59 52 48 49 49 46 45 46 48 50 55 59 61 62 64
9 10 11 11 11 12 12 11 10 10 10 11 12 11 10 12 13 11 12 14 14 19 35 49 55 54 54 53 52 53 54 49 44 45 47 46 44 43 45 44 45 50 53 57 61 72 81 80 80 81 80 81 79 75 75 74 69 64 60 58 58 59 59 59 60 59 58 56 55 53 52 54 54 58 59 60 65 66 62 61 62 63 61 55 50 52 52 50 49 49 49 52 58 61 62 66 71
10 9 11 13 13 13 12 11 10 10 10 9 10 9 10 13 13 12 12 14 18 23 34 43 48 55 58 56 57 56 51 45 41 41 44 45 45 43 42 40 40 45 47 48 50 62 80 88 84 83 86 84 82 81 80 83 81 74 68 62 60 62 62 61 60 60 61 59 59 57 57 59 61 63 63 65 71 71 68 64 63 63 63 59 52 52 53 53 53 50 50 55 62 66 66 69 73
11 9 10 14 13 13 12 11 10 9 9 9 9 10 12 14 12 13 13 14 20 23 29 38 43 49 52 53 59 58 50 45 42 41 41 40 41 41 38 37 37 35 34 39 42 43 58 83 89 85 88 85 81 83 84 85 84 78 70 63 61 60 62 63 61 62 63 62 62 65 66 65 64 65 65 70 73 75 74 66 62 63 66 61 54 56 57 53 52 52 54 60 66 67 64 67 73
11 10 11 12 10 11 12 10 10 9 9 9 10 11 12 12 11 13 13 13 18 20 23 33 41 43 47 53 57 53 46 43 43 40 37 36 36 37 36 35 32 27 25 28 33 34 39 61 81 85 85 83 83 85 86 85 81 76 68 63 63 63 64 63 61 63 63 62 65 69 72 69 67 66 68 73 74 76 75 68 63 64 65 62 58 63 62 56 58 60 62 64 64 61 58 64 71
10 11 12 11 10 10 11 10 9 9 10 10 9 10 10 10 11 13 13 14 19 22 23 33 44 44 48 53 50 44 38 36 38 36 33 34 35 35 34 32 28 26 26 25 30 38 39 43 60 79 83 80 85 88 86 84 80 74 65 62 67 67 65 62 62 63 61 62 65 68 69 69 70 69 69 71 72 74 74 72 70 68 69 66 64 69 68 67 70 68 66 63 62 61 62 67 67
10 10 11 11 11 11 10 10 9 9 10 10 9 9 10 10 12 12 13 17 22 29 37 47 49 45 47 46 42 39 34 33 33 32 31 33 36 34 33 32 30 29 29 28 30 37 46 49 56 77 86 82 88 91 87 82 77 72 62 62 68 67 64 62 64 63 62 64 64 68 71 72 74 74 73 72 74 77 76 75 74 73 74 72 71 74 74 74 72 68 67 68 69 70 72 71 66
11 9 10 9 10 11 10 10 9 10 10 10 9 8 9 11 12 11 14 21 25 37 51 55 46 43 47 43 39 37 34 35 32 29 30 33 35 31 31 32 29 31 31 29 34 38 49 65 73 83 87 83 89 91 82 75 74 71 64 65 68 66 64 64 66 66 66 67 67 70 74 76 78 78 76 76 78 79 77 76 75 75 75 74 73 74 74 72 69 69 71 74 75 74 73 68 62
12 11 11 10 10 11 11 11 11 11 9 9 8 8 9 11 12 12 19 26 30 45 53 47 39 43 50 44 37 36 37 36 32 30 31 33 35 30 27 27 29 37 39 35 41 49 56 68 76 81 82 80 84 84 74 68 72 70 65 67 67 65 67 66 66 66 65 69 73 72 71 74 76 75 76 77 77 75 72 72 72 72 72 73 72 70 70 69 69 72 75 77 75 70 68 62 60
12 12 12 10 10 11 11 11 11 10 9 9 8 8 9 11 11 12 22 31 39 53 51 39 38 44 49 45 39 39 41 37 31 31 32 33 35 32 26 27 35 44 45 39 42 55 62 66 70 75 77 76 75 75 72 69 70 69 67 68 66 67 69 67 67 67 68 71 73 71 72 73 73 72 75 76 74 70 68 69 70 70 70 70 70 69 70 70 74 76 74 74 70 65 63 59 57
11 11 11 10 10 10 10 10 10 9 9 10 9 8 8 9 10 12 20 27 36 53 51 40 41 42 45 46 42 40 40 36 32 30 31 32 31 32 30 33 42 46 46 42 43 53 60 68 77 78 76 74 72 71 71 70 68 70 72 71 69 69 70 69 69 69 72 75 71 70 73 74 75 78 77 76 72 67 66 69 71 71 71 70 70 72 73 74 78 76 70 66 64 63 62 58 54
12 11 10 10 10 10 10 10 9 9 10 10 9 8 8 9 8 12 21 21 26 48 54 44 41 40 40 43 43 41 38 33 32 31 30 30 31 35 36 36 40 44 48 44 45 55 58 67 77 74 74 74 72 70 68 68 68 71 74 75 74 72 70 71 72 69 72 78 73 71 76 76 80 85 83 77 70 66 68 71 72 72 73 73 72 72 73 75 78 76 70 66 63 61 59 55 52
11 12 11 10 12 14 12 11 10 9 10 10 8 8 9 12 13 16 22 18 21 45 58 47 38 39 37 39 40 39 36 34 34 33 30 32 35 39 40 40 41 42 47 46 48 56 58 65 70 67 72 75 74 73 70 68 68 70 74 77 77 75 73 72 72 70 73 82 79 75 78 77 80 87 88 81 72 70 72 73 74 75 74 73 73 72 73 76 77 75 70 65 62 58 53 51 50
12 13 14 11 11 17 15 12 11 10 13 12 8 8 10 14 19 23 23 18 21 41 59 53 38 36 36 37 38 34 35 39 39 36 34 35 38 41 42 43 43 42 45 45 47 53 56 62 64 65 70 74 75 74 72 71 70 72 75 78 77 76 76 74 73 73 76 84 83 78 78 79 82 86 88 84 75 75 76 75 77 77 75 73 72 71 74 77 76 73 67 62 60 55 49 48 50
14 13 17 18 15 17 18 13 11 10 13 12 9 8 10 15 23 28 24 19 25 39 58 59 40 33 36 36 38 35 36 41 43 44 40 37 39 42 44 44 44 44 47 45 44 49 54 60 63 63 66 71 74 72 72 75 75 75 77 79 79 78 77 76 75 74 78 82 80 79 80 84 84 82 88 86 78 79 80 79 79 76 74 74 70 68 74 76 75 71 66 62 57 52 49 48 51
19 14 15 21 19 17 20 18 13 11 11 10 10 10 9 17 25 28 25 20 26 37 57 68 46 31 35 37 38 36 38 44 49 50 45 40 42 45 46 46 44 43 45 46 46 48 51 56 59 60 63 68 70 69 70 73 74 77 78 79 80 79 78 77 75 75 78 78 79 85 85 83 80 81 90 85 75 79 80 80 81 75 73 71 65 67 73 76 74 69 65 60 52 51 54 51 51
29 25 18 19 18 16 19 19 16 13 11 10 12 12 9 15 20 22 24 21 22 30 51 70 55 33 33 36 38 38 39 46 49 51 49 43 42 47 49 46 42 40 41 44 47 49 51 53 56 59 62 64 66 67 68 68 71 75 78 80 79 78 77 76 76 75 75 76 80 87 83 79 79 83 89 82 74 77 74 77 82 75 70 67 63 68 74 75 72 65 60 55 47 47 52 51 52
31 31 28 23 22 23 23 18 16 14 13 12 12 13 12 12 15 18 24 23 21 25 41 60 57 43 36 35 39 43 44 48 50 53 52 44 41 47 49 44 42 41 41 43 47 49 50 52 55 58 61 64 65 65 66 68 70 73 76 78 77 76 75 75 78 77 74 77 82 84 81 80 81 82 82 80 78 77 75 79 81 73 67 65 64 69 72 70 65 57 51 47 42 42 45 48 53
24 24 25 20 19 24 27 19 15 14 12 12 12 13 13 13 15 18 25 27 21 22 32 46 52 48 42 38 41 45 50 55 56 54 52 48 46 50 52 50 48 46 43 43 47 48 48 50 52 56 59 61 63 63 66 68 70 74 76 76 75 74 74 75 78 80 79 82 85 85 84 82 82 81 78 79 78 76 80 82 78 70 65 62 64 67 66 62 58 53 47 42 41 43 44 46 49
23 21 17 16 15 17 24 22 17 15 13 13 13 13 13 14 14 17 27 32 24 19 24 34 41 44 41 39 42 46 52 58 57 52 51 52 51 51 53 54 54 52 46 43 45 47 47 48 50 55 57 57 60 63 64 66 71 76 76 74 73 74 77 77 76 78 81 84 84 84 85 82 81 80 77 78 76 75 80 79 73 67 62 61 63 63 58 55 54 51 47 44 42 44 46 44 46
21 19 16 16 18 19 25 25 18 16 14 14 13 13 13 14 13 14 22 30 25 19 20 24 31 39 40 36 39 45 48 53 53 50 53 54 51 48 48 51 52 52 48 45 47 50 51 52 53 56 57 57 61 64 65 68 73 76 75 75 74 76 79 77 75 79 82 85 84 82 82 79 77 76 75 77 75 73 73 71 68 63 59 60 62 60 54 53 54 49 45 45 45 45 47 45 45
19 19 18 16 20 23 26 27 24 19 16 14 14 15 15 15 15 14 17 23 23 19 18 19 23 33 40 39 39 39 41 48 50 49 56 57 52 47 46 47 47 49 50 50 52 55 59 58 56 58 59 59 61 62 64 71 75 74 74 77 76 76 77 74 76 82 83 83 82 81 81 79 77 75 74 74 71 67 63 62 62 59 58 59 58 58 55 53 51 45 43 45 45 45 46 45 47
20 20 19 18 23 26 27 28 26 22 18 15 14 15 16 15 15 14 15 19 21 20 19 19 19 24 35 44 48 44 40 44 44 46 57 63 57 49 46 44 44 49 54 56 57 59 62 61 59 61 62 62 63 62 64 71 75 73 73 77 76 73 73 71 73 78 81 82 81 82 83 78 74 69 67 66 62 58 55 56 58 57 58 58 57 56 53 49 45 43 44 43 42 47 49 48 48
21 21 19 18 22 26 26 24 21 19 17 16 15 15 15 14 15 15 16 19 21 21 20 19 18 20 29 42 53 52 44 42 41 44 57 66 61 51 46 44 44 50 55 59 61 61 62 63 63 65 66 66 66 66 67 70 73 73 73 76 76 74 73 71 70 73 81 83 80 79 78 73 69 64 61 61 57 54 50 51 56 59 59 56 56 55 50 47 43 41 43 41 42 46 50 52 49
21 22 21 20 21 22 22 20 18 17 16 19 19 18 19 18 19 21 22 25 26 26 25 22 19 20 25 34 49 55 48 44 43 44 56 63 59 50 45 44 46 51 56 61 65 68 67 63 62 64 66 66 67 69 70 70 73 74 74 75 76 74 73 72 71 76 81 79 73 72 69 67 66 62 59 58 54 53 50 49 53 59 59 55 54 53 48 45 42 40 42 43 47 46 47 55 53
21 22 23 24 23 21 20 18 18 17 17 22 22 21 21 20 22 25 28 30 30 28 29 28 24 21 23 28 41 50 45 41 41 46 57 58 52 48 45 44 46 50 56 59 62 67 66 60 58 61 64 66 68 69 70 70 72 73 73 77 78 74 73 72 73 77 79 73 68 67 64 63 63 59 57 55 52 53 53 52 52 55 58 56 52 51 47 45 43 43 42 42 46 46 47 55 53
21 23 23 24 22 20 20 19 18 17 18 22 23 24 23 20 21 24 28 31 30 29 33 37 34 29 29 28 35 45 42 35 37 48 58 54 47 46 44 45 47 48 52 54 55 60 63 59 57 58 61 64 66 69 68 66 68 69 71 77 77 72 69 69 72 76 75 69 65 64 64 62 59 56 55 55 55 54 54 55 55 54 57 57 55 54 52 47 45 43 40 40 42 43 48 51 49
20 22 23 21 20 19 19 18 18 20 21 20 22 25 26 24 24 23 26 31 33 37 42 45 40 35 36 33 36 45 45 39 40 48 54 50 44 43 42 45 46 46 49 51 53 58 62 62 60 59 61 58 56 60 63 61 62 65 68 71 70 69 67 67 72 74 69 64 61 61 61 58 55 55 54 55 57 56 54 54 55 53 54 53 52 55 54 50 48 44 43 45 43 43 47 44 43
20 22 22 19 18 18 20 20 20 24 24 20 21 24 28 29 28 29 34 38 40 45 48 46 40 36 35 34 38 46 47 44 46 50 51 49 45 42 41 44 46 47 49 51 53 57 60 62 61 60 61 57 51 51 57 60 61 64 66 66 67 69 69 69 72 72 66 63 60 56 55 55 54 54 52 51 54 54 53 54 53 52 49 46 47 50 51 50 48 46 46 48 46 44 45 41 39
21 22 20 18 19 21 23 23 24 26 24 22 24 24 27 31 34 40 45 44 42 43 46 45 41 39 37 36 42 49 49 47 47 48 49 49 46 42 41 42 46 48 49 51 53 57 61 63 62 61 61 60 55 52 55 59 61 63 63 65 68 71 72 71 69 68 66 63 58 53 54 55 53 51 49 49 52 52 52 52 52 52 50 45 44 46 46 45 45 46 44 43 44 43 42 42 41
21 22 19 18 25 29 30 29 29 28 24 23 28 29 31 35 40 46 46 41 37 36 38 39 38 42 43 39 42 48 51 50 48 47 48 47 45 42 40 41 44 47 50 53 55 58 62 64 64 62 60 60 59 57 56 56 58 60 59 62 67 72 76 74 69 68 66 61 56 53 55 56 53 52 51 52 55 55 55 53 51 51 49 45 43 43 41 39 39 42 42 40 43 44 41 42 43
20 21 18 19 28 35 36 34 32 32 29 26 29 33 34 36 43 50 44 37 35 34 34 34 34 40 43 41 42 46 50 51 50 49 47 45 43 41 40 40 44 47 51 55 58 61 63 63 63 62 60 60 63 63 58 54 57 57 57 60 64 73 80 75 70 69 64 58 55 55 55 54 53 54 53 54 56 57 57 53 50 49 47 44 42 38 36 34 35 40 43 44 49 46 42 45 46
21 20 18 20 27 35 39 39 38 37 34 33 35 34 31 34 46 51 43 37 37 38 37 36 36 40 43 44 45 49 54 55 52 48 44 43 43 42 42 43 47 50 52 56 58 60 61 62 62 60 58 58 62 66 61 56 58 59 58 59 63 75 81 73 69 67 60 56 57 56 54 52 52 54 55 55 56 56 55 51 51 53 48 45 42 37 36 34 35 42 44 46 53 50 46 49 48
23 20 18 21 26 32 36 38 41 40 37 39 40 36 35 42 51 50 44 42 41 41 41 41 44 46 45 46 48 49 54 55 50 45 43 44 46 46 48 50 50 51 54 58 59 58 59 60 60 59 57 56 58 62 63 60 60 59 59 60 64 76 80 72 68 66 59 58 59 56 54 54 55 56 56 55 55 57 59 57 59 57 47 44 44 42 42 38 38 45 45 45 51 52 51 51 49
30 24 20 20 25 32 35 38 41 40 38 37 35 37 42 46 50 53 52 47 45 46 47 48 51 50 46 48 49 46 47 47 44 45 47 48 50 52 54 54 51 50 55 60 60 59 58 59 59 58 57 57 55 57 62 64 64 66 67 68 70 76 77 71 68 64 58 58 59 56 54 54 55 59 60 57 58 61 63 63 63 56 47 47 49 47 47 44 42 46 47 45 47 49 51 52 51
32 32 29 24 24 29 34 39 42 40 36 32 28 33 41 44 48 55 58 52 49 53 55 55 56 55 54 55 52 48 49 45 42 48 51 51 52 52 53 56 55 53 56 59 59 59 59 59 60 59 59 58 56 54 57 60 64 68 71 71 69 70 71 70 67 61 54 54 58 56 54 56 58 62 61 56 58 63 63 63 61 52 49 53 55 52 50 48 47 48 49 47 45 45 46 47 49
26 32 35 32 32 34 34 36 41 41 38 34 29 29 40 52 56 60 63 56 53 56 59 61 63 62 60 61 59 57 56 51 48 54 56 53 54 54 53 56 58 57 58 59 60 61 61 60 61 61 60 60 58 56 55 56 59 62 65 66 67 68 70 69 65 57 52 55 58 55 58 65 66 64 61 56 59 64 63 63 59 53 54 58 59 56 53 51 51 51 50 48 45 44 43 42 46
23 28 31 32 36 40 38 36 36 37 39 40 34 32 49 63 60 60 63 57 55 59 63 66 69 68 64 63 65 65 62 58 56 58 58 55 55 56 56 58 59 61 61 63 65 64 63 63 63 62 62 62 61 58 57 57 56 57 62 65 68 71 71 69 63 55 53 58 58 56 62 68 63 60 59 60 66 67 62 61 61 60 62 61 60 58 54 53 53 52 50 48 46 43 41 42 44
25 25 28 30 33 36 39 40 37 34 38 40 34 39 60 69 60 60 62 59 59 60 61 66 68 67 65 64 66 68 67 66 63 62 64 63 60 59 61 61 60 61 65 68 69 68 67 69 69 66 68 71 68 62 61 61 57 55 61 66 69 71 72 70 65 57 56 59 57 57 63 65 61 62 62 64 69 68 63 62 63 63 63 61 60 59 57 56 55 53 52 49 46 43 41 41 42
28 26 26 28 30 33 37 41 41 38 39 42 39 47 66 68 60 61 62 61 63 60 59 64 65 62 63 65 66 66 69 72 71 69 71 73 72 69 67 65 62 64 71 76 75 73 74 74 74 74 77 79 76 69 65 63 60 59 62 67 70 71 72 72 69 61 57 58 57 59 63 63 66 71 69 67 68 66 64 63 63 63 62 59 59 60 58 57 55 55 53 49 47 45 43 42 41